Regional Weather Roundup
Issued by NWS Austin/San Antonio, TX

Home | Current Version | Previous Version | Text Only | Print | Product List | Glossary On
Versions: 1 2 3 4 5 6 7 8 9 10 11 12 13 14 15 16 17 18 19 20 21 22 23 24 25 26 27 28 29 30 31 32 33 34 35 36 37 38 39 40 41 42 43 44 45 46 47 48 49 50
000
ASUS44 KEWX 270902
RWREWX
SOUTH TEXAS REGIONAL WEATHER ROUNDUP
NATIONAL WEATHER SERVICE AUSTIN/SAN ANTONIO TX
300 AM CST MON JAN 27 2020

NOTE: "FAIR" INDICATED FEW OR NO CLOUDS BELOW 12,000 FEET WITH NO
SIGNIFICANT WEATHER AND/OR OBSTRUCTIONS TO VISIBILITY.

* - THESE STATIONS ARE NOT NWS OR FAA STATIONS...AND ARE NOT SUBJECT
    TO NWS AND FAA QUALITY CONTROL.

TXZ171-172-183>190-271000-
TEXAS HILL COUNTRY AND EDWARDS PLATEAU

CITY           SKY/WX    TMP DP  RH WIND       PRES   REMARKS
JUNCTION       CLEAR     40  36  86 W3        30.01F
*LLANO         CLEAR     45  41  87 CALM      30.04F
BURNET         CLEAR     46  43  89 NE3       30.02F
*HORSESHOE BAY NOT AVBL
*LAGO VISTA    CLEAR     50  48  94 E6        30.00F WCI  48
*KERRVILLE     CLEAR     41  38  89 CALM      30.01F
*FREDERICKSBRG CLEAR     41  38  91 CALM      30.01F
*ROCKSPRINGS   CLEAR     52  39  62 SE8       30.04F
*BOERNE        CLEAR     41  41 100 CALM      30.02F
*CASTROVILLE   CLEAR     50  46  87 CALM      30.02S
HONDO          CLEAR     50  44  80 NE5       30.00F WCI  48
*UVALDE        CLEAR     52  44  75 NE8       30.00F
DEL RIO        CLEAR     56  38  50 E7        29.96F
*LAUGHLIN AFB  NOT AVBL
*SPOFFORD      NOT AVBL
*EAGLE PASS    CLEAR     50  37  62 E6        29.98S WCI  48
CARRIZO SPRGS  CLEAR     46  36  66 CALM      29.97S
*FAITH RANCH   CLEAR     50  41  71 S6        29.97F WCI  48
$$

TXZ173-191>194-202-209-217>225-228-271000-
CENTRAL AND SOUTH CENTRAL TEXAS

CITY           SKY/WX    TMP DP  RH WIND       PRES   REMARKS
GEORGETOWN     CLEAR     44  41  89 CALM      30.02F
*TAYLOR        CLEAR     40  40  97 NW3       30.01S
AUSTIN/BERGSTM CLEAR     43  40  89 CALM      30.00F
AUSTIN/MABRY   CLEAR     51  47  86 CALM      30.01F
*PFLUGERVILLE  CLEAR     48  48 100 CALM      30.01S
SAN MARCOS     CLEAR     47  46  97 N5        30.01F WCI  45
NEW BRAUNFELS  CLEAR     52  48  86 CALM      29.99F
*RANDOLPH AFB  CLEAR     48  46  93 N6        30.00F WCI  46
*SEGUIN        CLEAR     47  45  93 CALM      30.04S
SAN ANTONIO    CLEAR     53  47  79 CALM      30.01S
STINSON FIELD  CLEAR     53  48  83 NE5       29.99S
*KELLY FIELD   CLEAR     52  46  82 CALM      29.97F
*PLEASANTON    CLEAR     48  44  84 CALM      30.00F
*KENEDY        CLEAR     48  46  91 CALM      30.01F
*LA GRANGE     CLEAR     47  47 100 CALM      29.99F
*GIDDINGS      CLEAR     46  44  95 CALM      30.02S
*GONZALES      CLEAR     51  50  96 NE3       29.99F
$$

TXZ163>164-176>182-195>201-210>213-226-227-235-271000-
SOUTHEAST TEXAS

CITY           SKY/WX    TMP DP  RH WIND       PRES   REMARKS
COLLEGE STN    CLEAR     52  48  86 E5        30.00F
*BRYAN         CLEAR     48  48 100 E3        30.02S FOG
*CALDWELL      CLEAR     46 N/A N/A CALM      30.01F FOG
*CROCKETT      NOT AVBL
*BRENHAM       CLEAR     49  48  97 CALM      30.02F FOG
HUNTSVILLE     FOG       53  51  93 E3        30.01F VSB 1/4
CONROE         FOG       52  52 100 E5        30.02F VSB 1/2
HOUSTON BUSH   FOG       54  53  97 NE6       30.02S VSB 1/2
HOUSTON HOBBY  CLOUDY    58  55  90 E6        30.01S FOG
*HOUSTON SW AP CLOUDY    56  56 100 E6        30.01F
PEARLAND       CLOUDY    59  54  83 NE5       30.02F
HOUSTON HOOKS  FOG       54  52  93 NE6       30.01F VSB 1/2
ELLINGTON FLD  NOT AVBL
SUGAR LAND     FOG       57  57 100 E7        30.00S VSB 3/4
*HOUSTON EXEC  MOCLDY    48  48 100 E3        30.02S FOG
*CLEVELAND MUN CLOUDY    53  53  99 CALM      30.03S FOG
*WHARTON       NOT AVBL
*COLUMBUS      FAIR      47  44  88 CALM      30.02S
*EAGLE LAKE    CLEAR     50  49  96 NE3       30.00S
$$

TXZ214>216-236>238-271000-
THE UPPER TEXAS COAST

CITY           SKY/WX    TMP DP  RH WIND       PRES   REMARKS
*ORANGE        CLOUDY    56  54  91 CALM      30.02S
PORT ARTHUR    CLOUDY    55  52  89 N5        30.00S
GALVESTON      CLOUDY    59  56  89 N8        30.01S
ANGLETON       MOCLDY    58  56  93 NE3       30.00F
*BAY CITY      LGT RAIN  56  56 100 NE3       30.00S VSB 1/2
PALACIOS       FOG       55  53  93 NE5       29.98F VSB<1/4
$$

TXZ229>234-239>247-271000-
TEXAS COASTAL BEND AND RIO GRANDE PLAINS

CITY           SKY/WX    TMP DP  RH WIND       PRES   REMARKS
VICTORIA       CLEAR     51  48  89 NE7       29.99F
*BEEVILLE      NOT AVBL
ROCKPORT       FOG       53  50  89 CALM      29.98S VSB 1/4
*PORT ARANSAS  FOG       57  56  97 CALM      29.99F VSB 1/4
*PORT LAVACA   NOT AVBL
*INGLESIDE     FOG       53  52  98 CALM      29.98S VSB 1/4
CORPUS CHRISTI FOG       52  51  97 CALM      29.97F VSB 1/2
CORPUS NAS     FOG       53  53 100 CALM      29.97S VSB 1/4
*ROBSTOWN      FOG       52  50  95 W3        29.99S VSB 1/4
ALICE          FOG       55  54  96 W5        29.98S VSB 1/4
KINGSVILLE NAS FOG       55  55 100 W6        29.98S VSB<1/4
COTULLA        CLEAR     55  48  77 E5        29.98F
LAREDO         CLEAR     58  53  84 SE6       29.97F
$$

TXZ248>255-271000-
DEEP SOUTH TEXAS

CITY           SKY/WX    TMP DP  RH WIND       PRES   REMARKS
BROWNSVILLE    FOG       58  56  93 W5        29.98S VSB 1/2
PORT ISABEL    FOG       55  54  96 W7        29.97S VSB 1/2
HARLINGEN      FOG       60  60 100 S3        29.98F VSB 1/4
*HEBBRONVILLE  RAIN      52  52  99 CALM      30.00S VSB 1/4
MCALLEN        MOCLDY    61  58  90 S3        29.99F FOG
*WESLACO       CLOUDY    60  57  92 CALM      29.98F FOG
FALFURRIAS     CLOUDY    56  55  93 W3        29.99S VSB 1/4
EDINBURG       CLOUDY    59  58  97 S3        30.00S FOG
*ZAPATA        FAIR      54  49  84 CALM      29.99S
$$

TXZ213>215-236>238-242>244-246-247-251-254-255-271000-
CMAN STATIONS

STATION/POSITION TIME  TEMP    WIND        PRES    WAVE
                       AIR SEA DIR/SP/G            HT/PER
                 (UTC) (F)     (DEG/KT/KT) (MB)    (FT/S)
SABINE PASS      0824   55 61              1017.5
SEA RIM ST PARK  0800   55      20/  4/  5 1015.9
NORTH JETTY/GLS  0824   57 60              1014.9
EAGLE POINT      0824   56 61              1015.7
MORGANS POINT    0824   55 60              1016.3
PORT O`CONNOR    0824   58 63              1015.0
PORT ARANSAS     0800   61 61  150/  3/  3 1015.0
MALAQUITE BEACH  0824   60 63              1014.7
BAFFIN BAY       0824   61 66              1015.1
PORT ISABEL      0824   62 66              1015.0
$$



USA.gov is the U.S. government's official web portal to all federal, state and local government web resources and services.